SV7RNH Weather Reports


Display with metric or nautical units.
time (UTC)temp
F
wind
direction
speed
MPH
gust
MPH
rain 1hr
in
rain 24hr
in
rain mn
in
humidity
%
barometer
mb
20260504050504 58 0 0.0 3.0 0.00 0.02 0.00 28 1021.4
20260504050004 57 80 2.0 3.0 0.00 0.02 0.00 28 1021.3
20260504045503 57 0 0.0 2.0 0.00 0.02 0.00 30 1021.3
20260504045003 57 0 0.0 4.0 0.00 0.02 0.00 31 1021.4
20260504044504 56 0 0.0 4.0 0.00 0.02 0.00 32 1021.4
20260504044003 56 95 1.0 4.0 0.00 0.02 0.00 33 1021.3
20260504043503 55 0 0.0 4.0 0.00 0.02 0.00 35 1021.2
20260504043003 54 86 1.0 4.0 0.00 0.02 0.00 37 1021.2
20260504042504 53 80 1.0 4.0 0.00 0.02 0.00 39 1021.3
20260504042003 51 50 1.0 4.0 0.00 0.02 0.00 40 1021.2
20260504041503 51 21 1.0 4.0 0.00 0.02 0.00 41 1021.3
20260504041004 51 0 0.0 4.0 0.00 0.02 0.00 42 1021.2
20260504040503 50 346 1.0 4.0 0.00 0.02 0.00 43 1021.3
20260504040003 50 44 1.0 4.0 0.00 0.02 0.00 43 1021.3
20260504035503 50 65 2.0 4.0 0.00 0.02 0.00 43 1021.2
20260504035004 50 50 1.0 4.0 0.00 0.02 0.00 44 1021.2
20260504034504 50 31 1.0 4.0 0.00 0.02 0.00 44 1021.2
20260504034003 50 24 2.0 5.0 0.00 0.02 0.00 44 1021.1
20260504033503 50 22 2.0 5.0 0.00 0.02 0.00 45 1021.0
20260504033004 50 38 1.0 4.0 0.00 0.02 0.00 45 1021.2
20260504032504 50 35 2.0 4.0 0.00 0.02 0.00 45 1021.2
20260504032003 50 36 1.0 5.0 0.00 0.02 0.00 45 1021.2
20260504031503 50 41 2.0 6.0 0.00 0.02 0.00 44 1021.1
20260504031003 50 31 3.0 6.0 0.00 0.02 0.00 44 1021.0
20260504030503 50 36 1.0 6.0 0.00 0.02 0.00 44 1021.1
20260504030004 50 34 2.0 6.0 0.00 0.02 0.00 44 1021.0
20260504025503 50 25 1.0 7.0 0.00 0.02 0.00 44 1020.9
20260504025003 50 31 2.0 7.0 0.00 0.02 0.00 44 1021.1
20260504024503 50 313 2.0 7.0 0.00 0.02 0.00 44 1021.0
20260504024004 50 254 1.0 4.0 0.00 0.02 0.00 44 1021.1
20260504023504 50 238 1.0 4.0 0.00 0.02 0.00 44 1021.1
20260504023003 50 208 1.0 4.0 0.00 0.02 0.00 44 1021.2
20260504022503 50 207 2.0 4.0 0.00 0.02 0.00 45 1021.1
20260504022003 51 214 1.0 3.0 0.00 0.02 0.00 45 1021.0
20260504021504 51 206 1.0 3.0 0.00 0.02 0.00 45 1021.1
20260504021003 50 0 0.0 3.0 0.00 0.02 0.00 45 1021.1
20260504020503 50 222 1.0 3.0 0.00 0.02 0.00 45 1021.0
20260504020003 50 0 0.0 4.0 0.00 0.02 0.00 45 1020.9
20260504015503 51 215 1.0 4.0 0.00 0.02 0.00 45 1020.9
20260504015004 51 225 1.0 3.0 0.00 0.02 0.00 45 1021.0
20260504014503 51 0 0.0 3.0 0.00 0.02 0.00 45 1021.0
20260504014003 51 225 1.0 3.0 0.00 0.02 0.00 45 1021.0
20260504013503 51 223 1.0 3.0 0.00 0.02 0.00 45 1020.7
20260504013003 51 232 1.0 5.0 0.00 0.02 0.00 44 1020.9
20260504012503 51 0 0.0 5.0 0.00 0.02 0.00 43 1020.7
20260504012004 51 209 1.0 3.0 0.00 0.02 0.00 44 1020.7
20260504011504 51 0 0.0 3.0 0.00 0.02 0.00 44 1020.8
20260504011003 51 225 1.0 2.0 0.00 0.02 0.00 44 1020.6
20260504010503 51 0 0.0 3.0 0.00 0.02 0.00 45 1020.6
20260504010003 51 0 0.0 4.0 0.00 0.02 0.00 45 1020.4
20260504005504 51 0 0.0 4.0 0.00 0.02 0.00 44 1020.4
20260504005004 51 22 1.0 4.0 0.00 0.02 0.00 44 1020.4
20260504004503 51 0 0.0 3.0 0.00 0.02 0.00 44 1020.3
20260504004003 51 0 0.0 3.0 0.00 0.02 0.00 44 1020.3
20260504003504 51 36 1.0 4.0 0.00 0.02 0.00 44 1020.3
20260504003004 52 29 2.0 4.0 0.00 0.02 0.00 44 1020.5
20260504002503 52 55 2.0 4.0 0.00 0.02 0.00 44 1020.4
20260504002004 52 0 0.0 3.0 0.00 0.02 0.00 43 1020.5
20260504001503 52 78 1.0 4.0 0.00 0.02 0.00 43 1020.5
20260504001003 52 0 0.0 4.0 0.00 0.02 0.00 43 1020.5
20260504000503 52 0 0.0 4.0 0.00 0.02 0.00 43 1020.5
20260504000004 52 182 2.0 4.0 0.00 0.02 0.00 44 1020.5
20260503235504 52 0 0.0 4.0 0.00 0.02 0.00 43 1020.4
20260503235003 52 0 0.0 4.0 0.00 0.02 0.00 43 1020.4
20260503234504 52 0 0.0 4.0 0.00 0.02 0.00 43 1020.4
20260503234003 52 348 1.0 4.0 0.00 0.02 0.00 43 1020.3
20260503233503 53 0 0.0 4.0 0.00 0.02 0.00 44 1020.4
20260503233003 53 0 0.0 4.0 0.00 0.02 0.00 44 1020.5
20260503232504 53 0 0.0 4.0 0.00 0.02 0.00 44 1020.6
20260503232004 53 0 0.0 4.0 0.00 0.02 0.00 44 1020.6
20260503231503 53 0 0.0 5.0 0.00 0.02 0.00 44 1020.6
20260503231003 53 0 0.0 5.0 0.00 0.02 0.00 44 1020.6
20260503230503 53 2 1.0 5.0 0.00 0.02 0.00 44 1020.7
20260503230004 53 317 1.0 3.0 0.00 0.02 0.00 43 1020.6
20260503225504 53 235 1.0 4.0 0.00 0.02 0.00 43 1020.6
20260503225003 53 225 1.0 4.0 0.00 0.02 0.00 42 1020.6
20260503224504 54 225 1.0 3.0 0.00 0.02 0.00 41 1020.6
20260503224003 54 0 0.0 3.0 0.00 0.02 0.00 41 1020.6
20260503223503 54 0 0.0 5.0 0.00 0.02 0.00 40 1020.5
20260503223003 54 107 1.0 5.0 0.00 0.02 0.00 39 1020.6
20260503222503 55 214 2.0 5.0 0.00 0.02 0.00 38 1020.6
20260503222004 55 225 1.0 3.0 0.00 0.02 0.00 38 1020.6
20260503221503 55 0 0.0 3.0 0.00 0.02 0.00 36 1020.5
20260503221003 56 201 1.0 3.0 0.00 0.02 0.00 34 1020.5
20260503220504 56 191 1.0 3.0 0.00 0.02 0.00 32 1020.5
20260503220003 56 181 1.0 2.0 0.00 0.02 0.00 30 1020.5
20260503215504 56 0 0.0 2.0 0.00 0.02 0.00 27 1020.5
20260503215003 57 0 0.0 2.0 0.00 0.02 0.00 27 1020.4
20260503214503 57 0 0.0 2.0 0.00 0.02 0.00 26 1020.4
20260503214005 57 0 0.0 2.0 0.00 0.02 0.00 23 1020.5
20260503213503 58 0 0.0 2.0 0.00 0.02 0.00 23 1020.3
20260503213004 58 0 0.0 2.0 0.00 0.02 0.00 22 1020.4
20260503212503 58 0 0.0 2.0 0.00 0.02 0.00 22 1020.3
20260503212004 58 0 0.0 2.0 0.00 0.02 0.00 22 1020.3
20260503211503 58 0 0.0 2.0 0.00 0.02 0.00 22 1020.3
20260503211004 58 0 0.0 2.0 0.00 0.02 0.00 21 1020.2
20260503210503 58 0 0.0 4.0 0.00 0.02 0.00 21 1020.3
20260503210004 59 0 0.0 6.0 0.00 0.02 0.00 21 1020.3
20260503205503 58 123 2.0 6.0 0.00 0.02 0.02 21 1020.3
20260503205004 58 103 2.0 5.0 0.00 0.02 0.02 21 1020.2
20260503204504 58 106 1.0 7.0 0.00 0.02 0.02 21 1020.3
20260503204003 58 139 2.0 7.0 0.00 0.02 0.02 21 1020.3
20260503203503 58 0 0.0 6.0 0.00 0.02 0.02 22 1020.3
20260503203004 58 0 0.0 5.0 0.00 0.02 0.02 22 1020.3
20260503202504 58 64 2.0 4.0 0.00 0.02 0.02 22 1020.3
20260503202003 58 79 1.0 4.0 0.00 0.02 0.02 22 1020.3
20260503201503 58 107 1.0 4.0 0.00 0.02 0.02 23 1020.3
20260503201003 58 0 0.0 4.0 0.00 0.02 0.02 24 1020.2
20260503200503 58 43 1.0 4.0 0.00 0.02 0.02 24 1020.2
20260503200003 58 0 0.0 4.0 0.00 0.02 0.02 23 1020.2
20260503195503 58 102 1.0 4.0 0.00 0.02 0.02 23 1020.2
20260503195003 58 0 0.0 6.0 0.00 0.02 0.02 22 1020.2
20260503194504 59 0 0.0 6.0 0.00 0.02 0.02 21 1020.3
20260503194003 59 127 1.0 5.0 0.00 0.02 0.02 20 1020.2
20260503193504 60 143 1.0 4.0 0.00 0.02 0.02 19 1020.2
20260503193004 60 160 1.0 4.0 0.00 0.02 0.02 19 1020.2
20260503192504 60 42 1.0 4.0 0.00 0.02 0.02 18 1020.1
20260503192003 60 0 0.0 5.0 0.00 0.02 0.02 18 1020.1
20260503191503 61 134 1.0 5.0 0.00 0.02 0.02 17 1020.1
20260503191003 60 161 2.0 4.0 0.00 0.02 0.02 17 1020.1
20260503190504 60 214 3.0 4.0 0.00 0.02 0.02 18 1020.1
20260503190004 60 0 0.0 3.0 0.00 0.02 0.02 17 1020.0
20260503185503 61 0 0.0 3.0 0.00 0.02 0.02 17 1019.9
20260503185003 61 0 0.0 4.0 0.00 0.02 0.02 17 1019.9
20260503184504 61 0 0.0 5.0 0.00 0.02 0.02 17 1020.0
20260503184004 61 0 0.0 5.0 0.00 0.02 0.02 16 1019.9
20260503183503 61 80 2.0 5.0 0.00 0.02 0.02 16 1019.6
20260503183003 61 97 2.0 5.0 0.00 0.02 0.02 16 1019.4
20260503182503 61 115 1.0 7.0 0.00 0.02 0.02 16 1019.3
20260503182005 62 101 2.0 7.0 0.00 0.02 0.02 16 1019.3
20260503181505 62 100 2.0 8.0 0.00 0.02 0.02 16 1019.2
20260503181004 62 110 2.0 9.0 0.00 0.02 0.02 15 1019.2
20260503180503 62 118 2.0 9.0 0.00 0.02 0.02 14 1019.2
20260503180004 63 90 2.0 6.0 0.00 0.02 0.02 15 1019.1
20260503175503 63 0 0.0 5.0 0.00 0.02 0.02 15 1019.2
20260503175004 64 94 2.0 5.0 0.00 0.02 0.02 14 1019.1
20260503174504 64 77 2.0 5.0 0.00 0.02 0.02 13 1019.0
20260503174003 64 0 0.0 2.0 0.00 0.02 0.02 12 1018.9
20260503173504 64 0 0.0 2.0 0.00 0.02 0.02 12 1018.9
20260503173004 64 0 0.0 3.0 0.00 0.02 0.02 12 1018.9
20260503172504 65 0 0.0 3.0 0.00 0.02 0.02 11 1018.9
20260503172003 65 0 0.0 3.0 0.00 0.02 0.02 11 1018.8
20260503171504 65 0 0.0 2.0 0.00 0.02 0.02 11 1018.7
20260503171004 65 0 0.0 3.0 0.00 0.02 0.02 11 1018.7
20260503170503 65 0 0.0 4.0 0.00 0.02 0.02 11 1018.6
20260503151003 69 56 1.0 8.0 0.00 0.02 0.02 10 1018.5
20260503150503 70 31 3.0 8.0 0.00 0.02 0.02 10 1018.6
20260503131004 74 196 1.0 6.0 0.00 0.02 0.02 10 1019.3
20260503130503 72 0 0.0 7.0 0.00 0.02 0.02 10 1019.3
20260503110504 65 243 1.0 5.0 0.00 0.02 0.02 10 1020.0
20260503090503 63 118 1.0 5.0 0.00 0.02 0.02 19 1020.8
20260503081504 61 0 0.0 7.0 0.01 0.02 0.02 32 1020.8
20260503081004 60 257 2.0 7.0 0.01 0.02 0.02 26 1020.9
20260503080503 61 200 1.0 6.0 0.01 0.02 0.02 26 1020.9
20260503072503 60 288 1.0 4.0 0.00 0.01 0.01 45 1020.8
20260503072003 59 28 1.0 4.0 0.00 0.01 0.01 47 1021.0
20260503071503 58 232 2.0 3.0 0.00 0.01 0.01 47 1021.0
20260503071004 58 234 1.0 3.0 0.00 0.01 0.01 50 1020.8
20260503070503 58 246 1.0 3.0 0.00 0.01 0.01 50 1020.8
20260503055003 50 241 2.0 4.0 0.01 0.01 0.01 58 1020.6
20260503054504 50 0 0.0 4.0 0.01 0.01 0.01 58 1020.5